Change the Weather History Date:

Thursday, November 22, 2012

  Actual Average Record
Temperature  
Mean Temperature -5 °F -  
Max Temperature 1 °F 11 °F 35 °F (2007)
Min Temperature -11 °F 2 °F -16 °F (2013)
Degree Days  
Heating Degree Days 70    
Moisture  
Dew Point -9 °F    
Average Humidity 85    
Maximum Humidity 100    
Minimum Humidity 66    
Precipitation  
Precipitation 0.00 in - - ()
Sea Level Pressure  
Sea Level Pressure 29.64 in    
Wind  
Wind Speed 6 mph (ENE)    
Max Wind Speed 12 mph    
Max Gust Speed -    
Visibility 10 miles    
Events      
Averages and records for this station are not official NWS values.
T = Trace of Precipitation, MM = Missing Value Source: NWS Daily Summary

Daily Weather History Graph

Daily Weather History Graph

Search for Another Location

Airport or City:

Trip Planner

Search our weather history database for the weather conditions in past years. The results will help you decide how hot, cold, wet, or windy it might be!

Date:

Astronomy

Nov. 22, 2012 Rise Set
Actual Time 9:20 AM AKST 3:48 PM AKST
Civil Twilight 8:23 AM AKST 4:45 PM AKST
Nautical Twilight 7:26 AM AKST 5:42 PM AKST
Astronomical Twilight 6:33 AM AKST 6:35 PM AKST
Moon 2:02 PM AKST (11/22) 2:17 AM AKST (11/22)
Length of Visible Light 8h 21m
Length of Day
6h 27m
Waxing Gibbous, 72% of the Moon is Illuminated
Nov 22
Waxing Gibbous
Nov 28
Full
Dec 6
Last Quarter
Dec 12
New
Dec 19
First Quarter

Hourly Weather History & Observations

Time (AKST) Temp. Windchill Dew Point Humidity Pressure Visibility Wind Dir Wind Speed Gust Speed Precip Events Conditions
12:16 AM -11.2 °F -27.8 °F -18.4 °F 70% 29.73 in 10.0 mi ENE 8.1 mph - N/A   Clear
12:36 AM -11.2 °F -27.8 °F -11.2 °F 100% 29.73 in 10.0 mi ENE 8.1 mph - N/A   Clear
12:56 AM -11.2 °F -26.4 °F -18.4 °F 70% 29.73 in 10.0 mi ENE 6.9 mph - N/A   Clear
1:16 AM -9.4 °F -26.8 °F -9.4 °F 100% 29.74 in 10.0 mi NE 9.2 mph - N/A   Clear
1:36 AM -9.4 °F -24.3 °F -11.2 °F 92% 29.74 in 10.0 mi NE 6.9 mph - N/A   Clear
1:56 AM -9.4 °F -24.3 °F -11.2 °F 92% 29.75 in 10.0 mi NE 6.9 mph - N/A   Clear
2:16 AM -9.4 °F -22.7 °F -9.4 °F 100% 29.75 in 10.0 mi NE 5.8 mph - N/A   Clear
2:56 AM -11.2 °F -24.8 °F -11.2 °F 100% 29.76 in 10.0 mi ENE 5.8 mph - N/A   Clear
3:36 AM -9.4 °F -20.9 °F -11.2 °F 92% 29.76 in 10.0 mi ENE 4.6 mph - N/A   Clear
3:56 AM -9.4 °F -20.9 °F -14.8 °F 77% 29.76 in 10.0 mi ENE 4.6 mph - N/A   Clear
4:16 AM -9.4 °F -20.9 °F -9.4 °F 100% 29.76 in 10.0 mi ENE 4.6 mph - N/A   Clear
4:36 AM -11.2 °F -20.6 °F -18.4 °F 70% 29.76 in 10.0 mi ENE 3.5 mph - N/A   Clear
4:56 AM -11.2 °F -20.6 °F -11.2 °F 100% 29.76 in 10.0 mi ENE 3.5 mph - N/A   Clear
5:16 AM -11.2 °F -24.8 °F -14.8 °F 84% 29.77 in 10.0 mi ENE 5.8 mph - N/A   Clear
5:36 AM -11.2 °F -26.4 °F -11.2 °F 100% 29.76 in 10.0 mi NE 6.9 mph - N/A   Clear
5:56 AM -9.4 °F -24.3 °F -14.8 °F 77% 29.76 in 10.0 mi NE 6.9 mph - N/A   Clear
6:16 AM -11.2 °F -26.4 °F -13.0 °F 92% 29.76 in 10.0 mi ENE 6.9 mph - N/A   Clear
6:36 AM -11.2 °F -24.8 °F -14.8 °F 84% 29.76 in 10.0 mi ENE 5.8 mph - N/A   Clear
6:56 AM -11.2 °F -23.0 °F -11.2 °F 100% 29.75 in 10.0 mi ENE 4.6 mph - N/A   Clear
7:16 AM -9.4 °F -18.6 °F -11.2 °F 92% 29.75 in 10.0 mi ENE 3.5 mph - N/A   Clear
7:36 AM -11.2 °F -20.6 °F -14.8 °F 84% 29.75 in 10.0 mi ENE 3.5 mph - N/A   Clear
7:56 AM -11.2 °F -20.6 °F -13.0 °F 92% 29.74 in 10.0 mi ENE 3.5 mph - N/A   Clear
8:16 AM -9.4 °F -18.6 °F -11.2 °F 92% 29.75 in 10.0 mi ENE 3.5 mph - N/A   Clear
8:36 AM -11.2 °F -23.0 °F -16.6 °F 77% 29.74 in 10.0 mi ENE 4.6 mph - N/A   Clear
8:56 AM -11.2 °F -23.0 °F -11.2 °F 100% 29.74 in 10.0 mi ENE 4.6 mph - N/A   Clear
9:16 AM -9.4 °F -18.6 °F -14.8 °F 77% 29.74 in 10.0 mi ENE 3.5 mph - N/A   Clear
9:36 AM -11.2 °F -23.0 °F -13.0 °F 92% 29.74 in 10.0 mi ENE 4.6 mph - N/A   Clear
9:56 AM -11.2 °F -23.0 °F -14.8 °F 84% 29.74 in 10.0 mi ENE 4.6 mph - N/A   Clear
10:16 AM -9.4 °F -20.9 °F -11.2 °F 92% 29.74 in 10.0 mi ENE 4.6 mph - N/A   Clear
10:36 AM -9.4 °F - -11.2 °F 92% 29.73 in 10.0 mi Calm Calm - N/A   Clear
10:56 AM -9.4 °F -18.6 °F -11.2 °F 92% 29.72 in 10.0 mi East 3.5 mph - N/A   Clear
11:16 AM -7.6 °F -20.6 °F -7.6 °F 100% 29.71 in 10.0 mi East 5.8 mph - N/A   Clear
11:36 AM -7.6 °F -16.5 °F -9.4 °F 92% 29.71 in 10.0 mi East 3.5 mph - N/A   Clear
11:56 AM -5.8 °F -16.7 °F -7.6 °F 92% 29.69 in 10.0 mi East 4.6 mph - N/A   Clear
12:16 PM -5.8 °F -14.5 °F -7.6 °F 92% 29.68 in 10.0 mi East 3.5 mph - N/A   Clear
12:36 PM -5.8 °F -14.5 °F -9.4 °F 84% 29.67 in 10.0 mi East 3.5 mph - N/A   Clear
12:56 PM -2.2 °F -10.4 °F -4.0 °F 92% 29.65 in 10.0 mi NE 3.5 mph - N/A   Clear
1:16 PM 1.4 °F -6.2 °F -5.8 °F 72% 29.64 in 10.0 mi NE 3.5 mph - N/A   Clear
1:36 PM 1.4 °F -8.3 °F -2.2 °F 85% 29.63 in 10.0 mi NE 4.6 mph - N/A   Clear
1:56 PM 1.4 °F -8.3 °F -5.8 °F 72% 29.61 in 10.0 mi NNE 4.6 mph - N/A   Clear
2:16 PM 1.4 °F -8.3 °F -4.0 °F 78% 29.60 in 10.0 mi NNE 4.6 mph - N/A   Clear
2:36 PM 1.4 °F -8.3 °F -5.8 °F 72% 29.59 in 10.0 mi NE 4.6 mph - N/A   Clear
2:56 PM -0.4 °F -13.4 °F -5.8 °F 78% 29.58 in 10.0 mi NNE 6.9 mph - N/A   Clear
3:16 PM -0.4 °F -13.4 °F -5.8 °F 78% 29.56 in 10.0 mi NE 6.9 mph - N/A   Clear
3:36 PM -2.2 °F -12.5 °F -11.2 °F 66% 29.56 in 10.0 mi NNE 4.6 mph - N/A   Clear
3:56 PM -4.0 °F -12.4 °F -7.6 °F 85% 29.55 in 10.0 mi NE 3.5 mph - N/A   Clear
4:16 PM -5.8 °F -21.2 °F -9.4 °F 84% 29.55 in 10.0 mi North 8.1 mph - N/A   Clear
4:36 PM -0.4 °F -13.4 °F -4.0 °F 85% 29.53 in 10.0 mi NNE 6.9 mph - N/A   Clear
4:56 PM -0.4 °F -15.7 °F -9.4 °F 66% 29.52 in 10.0 mi NE 9.2 mph - N/A   Clear
5:16 PM -0.4 °F -13.4 °F -2.2 °F 92% 29.51 in 10.0 mi ENE 6.9 mph - N/A   Clear
5:36 PM -2.2 °F -14.2 °F -9.4 °F 71% 29.51 in 10.0 mi East 5.8 mph - N/A   Clear
5:56 PM -0.4 °F -10.4 °F -5.8 °F 78% 29.51 in 10.0 mi East 4.6 mph - N/A   Clear
6:16 PM -2.2 °F -15.6 °F -7.6 °F 78% 29.51 in 10.0 mi ENE 6.9 mph - N/A   Clear
6:36 PM -2.2 °F -14.2 °F -4.0 °F 92% 29.50 in 10.0 mi ENE 5.8 mph - N/A   Clear
6:56 PM -2.2 °F -15.6 °F -5.8 °F 85% 29.50 in 10.0 mi ENE 6.9 mph - N/A   Clear
7:16 PM -0.4 °F -15.7 °F -4.0 °F 85% 29.50 in 10.0 mi NE 9.2 mph - N/A   Clear
7:36 PM -0.4 °F -14.7 °F -2.2 °F 92% 29.49 in 10.0 mi NNE 8.1 mph - N/A   Clear
7:56 PM 1.4 °F -15.3 °F -4.0 °F 78% 29.48 in 10.0 mi NE 11.5 mph - N/A   Clear
8:16 PM -0.4 °F -17.6 °F -5.8 °F 78% 29.49 in 10.0 mi NE 11.5 mph - N/A   Clear
8:36 PM -0.4 °F -16.7 °F -4.0 °F 85% 29.49 in 10.0 mi NE 10.4 mph - N/A   Clear
8:56 PM -0.4 °F -14.7 °F -2.2 °F 92% 29.49 in 10.0 mi NNE 8.1 mph - N/A   Clear
9:16 PM -0.4 °F -13.4 °F -5.8 °F 78% 29.50 in 10.0 mi NNE 6.9 mph - N/A   Clear
9:36 PM -0.4 °F -14.7 °F -5.8 °F 78% 29.51 in 10.0 mi NE 8.1 mph - N/A   Clear
9:56 PM 1.4 °F -14.5 °F -2.2 °F 85% 29.51 in 10.0 mi ENE 10.4 mph - N/A   Clear
10:16 PM 1.4 °F -11.3 °F -4.0 °F 78% 29.51 in 10.0 mi NE 6.9 mph - N/A   Clear
10:36 PM 1.4 °F -13.5 °F -0.4 °F 92% 29.52 in 10.0 mi ENE 9.2 mph - N/A   Clear
10:56 PM 1.4 °F -12.5 °F -2.2 °F 85% 29.52 in 10.0 mi East 8.1 mph - N/A   Clear
11:16 PM 1.4 °F -11.3 °F -2.2 °F 85% 29.52 in 10.0 mi East 6.9 mph - N/A   Scattered Clouds
11:36 PM 1.4 °F - -4.0 °F 78% 29.51 in 10.0 mi Calm Calm - N/A   Mostly Cloudy
11:56 PM 1.4 °F - -5.8 °F 72% 29.51 in 10.0 mi Calm Calm - N/A   Overcast